Location: G�migny
(47.9646°N, 1.6950°E)
Time: 22:07:01
(UTC+00:00)

STARLINK-24 - Pass Details

Date: 23 October 2019
Orbit: 550 x 553 km, 53.0° (Epoch: 19 November)

Event Time Altitude Azimuth Distance (km) Brightness Sun altitude
Rises 17:15:25 0° 279° (W) 2,721 8.7 -4.8°
Reaches altitude 10° 17:17:45 10° 287° (WNW) 1,828 7.4 -5.2°
Maximum altitude 17:21:41 40° 358° (N) 817 4.4 -5.9°
Drops below altitude 10° 17:25:38 10° 69° (ENE) 1,829 5.6 -6.5°
Enters shadow 17:26:03 - 71° (ENE) 1,987 5.8 -6.6°
